User: anonymous
Location: Harbor Island
(32.3990°N, 80.4435°W)
Time: 00:13:43
(UTC-04:00)
Language:

Cosmos 1455 - Orbit

View from above orbital plane
View from above orbital plane
View from above satellite
View from above satellite

Ground track
Ground track

The orbit data is extracted from the following two-line orbital elements,

1 14032U 83037A   14207.65714730  .00002180  00000-0  12735-3 0  5884
2 14032 082.5166 047.2437 0019094 343.6461 081.1716 15.11255404701412
Epoch (UTC): 26 July 2014 15:46:17
Eccentricity: 0.0019094
inclination: 82.5166°
perigee height: 519 km
apogee height: 545 km
right ascension of ascending node: 47.2437°
argument of perigee: 343.6461°
revolutions per day: 15.11255404
mean anomaly at epoch: 81.1716°
orbit number at epoch: 70141

The dashed part of the orbit path shows where the satellite is in the earth's shadow,  

DLR